Tracking 22458 objects as of 4-Mar-2021
HD Live streaming from Space Station
objects crossing your sky now

SL-12 R/B(2)

Track SL-12 R/B(2) now!


NORAD ID: 22984
Int'l Code: 1994-008D
Perigee: 36,333.8 km
Apogee: 36,571.8 km
Inclination: 15.6 °
Period: 1,469.9 minutes
Semi major axis: 42823 km
RCS: 2.2403 m2 (large)
Launch date: February 5, 1994
Source: Commonwealth of Independent States (former USSR) (CIS)
Launch site: TYURATAM MISSILE AND SPACE COMPLEX (TTMTR)

Note: This is a ROCKET BODY
aabbcc
Your satellite tracking list
Your tracking list is empty




NASA's NSSDC Master Catalog

Two Line Element Set (TLE):
1 22984U 94008D   21062.75396773 -.00000164  00000-0  00000-0 0  9996
2 22984  15.5548   5.8954 0027793  18.9310 175.4902  0.97966023 96708
Source of the keplerian elements: AFSPC